Regional Weather Roundup
Issued by NWS

Home | Current Version | Previous Version | Graphics & Text | Print | Product List | Glossary On
Versions: 1 2 3 4 5 6 7 8 9 10 11 12 13 14 15 16 17 18 19 20 21 22 23 24 25 26 27 28 29 30 31 32 33 34 35 36 37 38 39 40 41 42 43 44 45 46 47 48 49 50
761
ASUS45 KBOU 231107
RWRCO

WEATHER ROUNDUP FOR COLORADO
NATIONAL WEATHER SERVICE DENVER/BOULDER CO
500 AM MDT THU MAR 23 2017

NOTE: "FAIR" INDICATES FEW OR NO CLOUDS BELOW 12000 FEET WITH NO
SIGNIFICANT WEATHER AND/OR OBSTRUCTIONS TO VISIBILITY.

COZ001>005-013-030-031-231200-
...NORTHWEST COLORADO...

CITY           SKY/WX    TMP DP  RH WIND       PRES   REMARKS
CRAIG          FAIR      41  31  67 CALM      29.73F
HAYDEN         FAIR      43  28  56 E10       29.75F
MEEKER         FAIR      51  25  36 S16G24    29.73F
MOUNT WERNER   NOT AVBL
STEAMBOAT SPGS FAIR      44  31  60 SE13      29.77F
WALDEN         NOT AVBL
$$

COZ006>008-011-231200-
...WEST CENTRAL VALLEYS...

CITY           SKY/WX    TMP DP  RH WIND       PRES   REMARKS
GRAND JUNCTION FAIR      49  41  74 N14       29.73S
MONTROSE       FAIR      54  24  31 S16G22    29.79F
EAGLE          CLOUDY    42  32  67 S6        29.84F
RIFLE          FAIR      57  22  25 S16G28    29.74F
DELTA          FAIR      54  22  29 SW3       29.77R
NUCLA          MOCLDY    50  32  50 S12       29.84F
$$

COZ017>023-064>068-231200-
...SOUTHWEST COLORADO...

CITY           SKY/WX    TMP DP  RH WIND       PRES   REMARKS
DURANGO        MOCLDY    31  21  66 E8        29.89S WCI  23
CORTEZ         FAIR      43  34  70 S10       29.84F
PAGOSA SPRINGS FAIR      44  24  44 W7        29.93S
TELLURIDE      CLOUDY    43  20  40 S13G26    29.91F
WOLF CREEK PAS CLOUDY    28  19  69 S24G35    30.06F WCI  14
$$

COZ009-010-012-014-032>034-037-058>063-231200-
...CENTRAL COLORADO...

CITY           SKY/WX    TMP DP  RH WIND       PRES   REMARKS
ASPEN          CLOUDY    43  31  62 SW6       29.85F
BUENA VISTA    FAIR      42  21  43 CALM      29.87S
COPPER MTN     FAIR      34  23  64 MISG      29.99F
BERTHOUD PASS  FAIR      27  16  63 W13G18    30.00F WCI  16
COTTONWOOD PAS MOCLDY    43  19  39 SW9G20    29.94S
GUNNISON       FAIR      38  29  70 CALM      29.86F
KREMMLING      FAIR      45  32  61 CALM      29.85F
LEADVILLE      MOCLDY    31  23  72 VRB5      29.91F WCI  26
MONARCH PASS   MOCLDY    32  19  59 SW33G44   30.10F WCI  17
SALIDA         FAIR      43  22  42 CALM      29.94F
SUNLIGHT       FAIR      30  21  69 S12G30    29.95R WCI  21
WILKERSON PASS CLOUDY    34  18  51 SW8G20    30.01F WCI  27
$$

COZ069>075-231200-
...SAN LUIS VALLEY/SANGRE DE CRISTO MOUNTAINS...

CITY           SKY/WX    TMP DP  RH WIND       PRES   REMARKS
ALAMOSA        FAIR      36  22  56 S12       29.88S
LA VETA PASS   NOT AVBL
SAGUACHE       FAIR      39  21  48 E3        29.89F
$$

COZ035-036-038>040-231200-
...NORTHERN COLORADO FRONT RANGE...

CITY           SKY/WX    TMP DP  RH WIND       PRES   REMARKS
DENVER INTL AP FAIR      51  34  52 S17       29.70S
DMNS CITY PARK   N/A     51  30  45 S6        29.71R
AURORA         PTCLDY    47  34  61 S12       29.73R
FRONT RANGE AP FAIR      50  37  62 S13G21    29.72S
ERIE MUNI ARPT FAIR      35  28  73 CALM      29.71R
BOULDER MUN AP FAIR      45  28  53 CALM      29.72R
CENTENNIAL     FAIR      56  23  27 W10       29.73S
BROOMFIELD     FAIR      52  27  37 CALM      29.72S
FORT COLLINS   FAIR      39  34  82 N6        29.71R
LONGMONT       FAIR      38  29  71 E6        29.73R
$$

COZ041-046-047-076>085-087-088-231200-
...PIKES PEAK/PALMER DIVIDE AND SOUTHERN FOOTHILLS...

CITY           SKY/WX    TMP DP  RH WIND       PRES   REMARKS
COLO. SPRINGS  FAIR      41  33  73 E3        29.79S
A. F. ACADEMY  FAIR      34  30  86 N6        29.80S WCI  29
SCHRIEVER AFB  FAIR      42  36  79 CALM      29.79F
ELLICOTT         N/A    N/A N/A N/A CALM      29.77S
FALCON         FAIR      40  36  84 S9        29.82R
FORT CARSON    NOT AVBL
LIMON          FOG       36  36 100 S5        29.76S VSB 1/4
MONUMENT HILL  FAIR      41  30  65 SW9       29.82R
TRINIDAD       FAIR      56  39  53 SW12      29.80S
$$

COZ042>045-048>051-090-091-231200-
...NORTHEAST COLORADO...

CITY           SKY/WX    TMP DP  RH WIND       PRES   REMARKS
GREELEY ARPT   FAIR      35  32  88 N9        29.69F WCI  28
AKRON          FAIR      50  42  74 S17       29.67F
BURLINGTON     FAIR      47  44  90 S18       29.74F
WRAY           NOT AVBL
STERLING       FAIR      34  32  93 N9        29.69S WCI  26
HOLYOKE        FAIR      37  36  93 SE9       29.71F
FORT MORGAN    FAIR      39  35  84 N12       29.70R
$$

COZ086-089-092>099-231200-
...SOUTHEAST COLORADO...

CITY           SKY/WX    TMP DP  RH WIND       PRES   REMARKS
PUEBLO         FAIR      39  30  70 SW6       29.73F
LA JUNTA       FAIR      58  48  69 S9        29.71F
LAMAR          FAIR      56  48  74 S8        29.71F
SPRINGFIELD      N/A     47  46  97 S9        29.80F
$$




USA.gov is the U.S. government's official web portal to all federal, state and local government web resources and services.